星链-30846 (STARLINK-30846 )

导读

STARLINK-30846是美国太空探索技术公司(SpaceX)星链(Starlink)星座中的低轨通信卫星,于2023年11月3日由美国发射升空,属于星链星座组网部署的组成部分。 该卫星运行在近地轨道,依托星链标准化设计,具备空间碎片自动规避能力,核心任务是为全球提供高速低延迟宽带互联网接入服务,助力提升偏远地区网络覆盖,推动星链全球互联网络的构建。

基本信息
目录编号:
58210
目录名称:
STARLINK-30846
国际标识:
2023-170E
轨道中心:
EARTH
卫星名称:
星链-30846
卫星全名:
星链-30846 (STARLINK-30846 )
卫星状态:
在轨 (已飞行958 天)
发射日期:
2023-11-03 UTC
国别 :
美国 (US)
星等 :
--
轨道信息
数据来源 国际轨道数据
星历时间: 2026-06-18T06:12:35+0800
11小时前
查看轨道信息
半长轴: 6861.001km
偏心率: 0.0001798
轨道倾角: 43.004°
近地点辐角 263.421°
升交点赤经 348.627°
平近点角 96.643°
近地点: 481.63km
远地点: 484.098km
周期: 94.263分钟
每日圈数: 15.276421
详细信息
固有亮度:
5
最大亮度:
0.3
卫星平台:
Starlink v2.0 mini
覆盖范围:
全球
运营商:
太空探索技术公司
运营商所在国:
美国
制造商(研发单位):
太空探索技术公司
制造商所在国:
美国
使用方式:
暂无
卫星简介
星链(Starlink)计划是由太空探索技术公司(SpaceX)提出的一个巨型低轨卫星互联网星座项目,计划在2019年至2024年间在太空搭建由约1.2万颗卫星组成的“星链”网络,其中1584颗将部署在地球上空550千米处的近地轨道,并从2020年开始工作。该卫星仍在工作。
2D轨道图
3D轨道图
轨道高度分析图
轨道倾角分析图
轨道综合分析图
查看轨道综合分析图